Dewpoint
56 56 56 57 57 57 57 57 57 57 58 58 58 58 58 59 58 51 39 37 41 59 59 42 40 40 41 37 22 14 11 10 9 15 17 16 16 19 20 19 17 18 18 25 26
55 56 56 57 57 57 57 57 57 57 58 58 57 58 58 59 49 38 49 54 58 60 37 39 37 39 28 24 24 13 10 9 11 16 17 18 19 19 18 18 21 21 26 26 25
54 55 55 56 57 57 57 57 57 57 57 57 57 58 58 58 35 29 54 57 61 56 41 42 42 39 26 22 22 17 13 14 16 21 21 19 19 19 19 17 18 19 24 24 26
53 54 54 55 56 57 57 57 57 56 56 57 57 58 59 51 23 31 59 62 64 52 43 38 27 25 24 23 23 28 20 21 21 23 21 20 19 19 18 17 19 20 23 29 24
53 53 53 54 55 56 57 57 57 56 56 57 57 58 52 43 42 42 62 58 51 43 37 30 29 26 30 24 24 22 24 26 26 24 24 22 20 19 18 19 20 19 21 24 25
53 52 52 53 54 55 56 56 56 56 56 57 58 58 46 33 38 44 36 43 40 39 32 30 34 30 25 25 24 25 25 26 26 25 25 23 22 21 22 23 21 21 21 23 25
53 53 52 53 53 54 55 55 55 56 56 57 58 54 44 31 42 36 40 40 39 39 31 31 31 30 30 29 28 27 25 25 26 25 23 23 21 22 23 23 22 23 22 22 27
52 52 53 53 53 54 54 55 55 56 56 57 57 51 32 36 42 36 38 38 35 35 34 32 31 31 31 31 29 26 24 19 21 22 23 23 20 21 24 24 25 25 22 23 26
51 51 52 52 53 53 54 54 55 56 57 58 50 44 33 44 35 36 34 32 31 31 33 30 31 31 31 29 27 22 18 19 19 22 23 23 21 24 26 26 25 26 26 25 25
51 51 51 52 52 53 53 54 54 54 55 54 47 39 35 35 33 28 30 31 30 30 29 31 31 29 29 27 20 18 18 18 19 20 22 23 23 25 27 26 26 26 26 27 27
51 50 50 51 52 52 50 39 35 33 38 32 32 35 35 38 32 28 30 30 30 28 27 28 26 26 26 26 26 21 19 18 20 21 25 23 24 25 26 27 26 27 26 27 28
50 50 50 51 52 52 49 35 37 37 34 34 34 35 36 39 36 35 30 27 28 24 27 25 23 23 24 28 23 21 20 19 23 24 26 25 25 25 27 27 27 26 27 31 30
49 49 49 50 51 48 40 38 40 38 35 33 35 35 35 37 36 33 27 26 24 25 25 25 25 25 26 24 23 22 20 21 21 25 26 25 23 24 26 28 29 31 32 30 30
48 48 49 50 45 43 37 39 41 39 36 37 37 34 30 28 28 29 27 26 27 23 26 25 24 26 26 25 24 20 23 23 24 24 21 24 19 24 27 33 32 31 29 26 28
47 48 48 49 41 38 36 42 43 44 30 39 32 30 25 22 24 28 28 26 24 25 25 23 24 24 24 24 24 22 24 24 25 24 24 22 22 23 30 30 31 31 29 35 36
46 47 48 49 46 44 46 40 43 38 30 36 26 28 26 27 24 27 27 28 27 26 27 25 28 26 25 27 26 27 26 25 25 23 21 22 23 22 28 30 32 33 35 38 38
46 47 47 45 27 40 41 40 25 33 35 25 26 24 23 22 22 24 25 26 24 21 22 24 24 28 27 25 27 25 23 20 18 17 20 23 23 22 27 33 32 32 35 36 37
46 46 46 45 42 42 40 35 22 23 35 30 28 28 22 31 30 30 28 24 26 26 24 23 24 28 29 27 25 26 23 21 17 20 20 24 22 23 29 34 34 34 35 37 38
45 39 41 45 46 42 35 28 16 32 35 30 28 25 22 31 28 29 28 25 26 28 25 25 26 29 29 28 26 25 24 24 22 24 23 23 25 27 32 35 34 33 35 35 37
40 40 38 43 44 39 31 25 28 37 30 32 26 26 20 27 26 30 29 29 30 33 28 28 26 29 31 30 30 27 27 23 24 21 21 23 23 23 28 31 31 32 34 34 34
35 24 30 35 39 35 28 29 31 32 37 33 27 27 26 27 28 30 29 30 32 32 32 30 29 29 31 28 26 27 27 25 26 26 23 23 25 28 26 28 29 31 31 31 31
28 16 25 38 30 32 28 31 36 34 34 33 31 28 27 31 32 32 30 30 33 34 30 31 30 28 28 30 31 29 28 29 26 25 27 27 26 30 30 31 31 30 30 29 28
26 30 38 36 28 30 32 31 33 32 32 31 29 33 34 32 29 32 33 34 33 32 33 32 29 26 26 26 29 29 29 30 30 29 26 26 25 31 31 30 30 28 29 29 31
31 23 37 36 36 31 31 31 30 31 33 32 31 33 33 32 33 30 34 36 34 35 45 39 30 27 26 27 27 28 29 30 30 23 27 28 28 29 29 30 30 30 30 34 38
38 36 35 31 32 31 33 31 26 27 33 32 30 32 30 30 31 32 34 33 34 39 37 32 28 31 30 31 32 32 31 31 32 31 30 29 29 30 31 31 31 31 34 36 37
31 32 31 29 32 31 31 25 24 31 33 31 33 33 31 29 30 30 31 30 28 31 30 33 29 30 27 28 29 28 27 27 27 29 32 32 31 32 33 38 37 37 38 36 36
35 33 33 30 32 30 28 31 31 32 32 33 32 31 31 32 32 31 33 32 31 30 31 32 30 31 26 29 29 25 25 27 26 26 27 26 27 37 36 37 37 38 39 40 40
Lifted_Index
14 14 13 13 12 12 12 12 12 12 12 12 12 12 11 11 11 12 13 13 12 12 11 11 11 11 11 11 11 10 7 6 7 8 9 9 9 9 9 8 8 8 9 9 9
14 14 13 13 12 12 12 12 12 12 12 12 12 12 11 11 11 12 12 12 12 12 11 11 11 11 11 11 11 10 8 7 8 9 9 9 9 8 8 7 7 8 8 9 9
13 13 13 13 13 12 13 13 13 12 12 12 12 11 10 10 10 11 12 12 11 11 11 11 11 11 11 11 10 9 8 9 9 9 9 8 8 8 7 7 7 7 7 7 8
13 13 12 12 12 12 13 13 13 13 12 12 12 11 10 9 10 11 11 11 11 11 11 11 11 11 11 10 10 9 9 9 9 9 8 8 8 8 8 8 8 7 7 7 7
14 13 12 12 12 12 12 13 13 13 13 12 11 11 10 9 10 10 11 10 10 11 11 11 11 11 11 10 10 9 9 9 8 8 8 8 7 8 8 8 8 8 7 7 7
15 14 13 12 12 11 12 12 13 13 13 12 11 10 10 10 10 10 10 10 10 10 11 11 11 11 11 10 10 9 9 8 7 7 7 7 7 7 7 7 7 7 6 6 6
15 15 14 13 12 11 11 11 12 12 12 11 10 10 9 9 9 10 10 10 10 10 10 10 10 10 10 10 9 9 8 7 7 7 7 6 6 6 7 6 6 6 6 5 5
15 15 14 13 12 11 10 10 10 11 11 10 10 9 8 8 8 9 10 10 10 10 10 10 10 10 9 9 9 8 7 6 6 6 7 6 6 6 6 6 6 6 5 5 5
15 15 14 13 12 11 10 9 9 9 10 9 9 8 8 8 8 9 9 10 10 10 10 10 10 9 9 8 8 7 6 5 6 6 7 6 6 6 6 6 6 6 5 5 5
15 14 14 13 12 11 9 8 8 8 8 8 8 8 8 8 8 9 9 9 10 10 9 9 9 9 9 8 7 6 5 5 5 7 7 6 6 6 6 6 6 6 5 5 4
14 14 14 13 12 10 8 7 7 7 7 8 8 8 8 7 8 8 9 9 9 9 9 9 9 8 9 8 7 6 5 5 6 7 6 5 5 5 5 5 5 5 5 4 4
13 13 13 13 11 9 7 7 7 7 7 7 8 8 8 7 7 8 8 9 9 9 9 8 8 8 8 8 8 7 6 6 6 6 6 5 4 4 5 5 4 4 4 4 3
11 12 13 13 11 8 7 7 7 6 6 6 6 7 7 7 7 7 8 8 8 8 8 8 8 8 8 7 7 7 6 6 6 5 5 5 4 4 4 4 4 4 4 3 3
10 11 12 12 10 8 7 6 6 5 4 4 5 6 6 6 7 7 7 7 7 8 8 8 8 7 7 7 7 7 6 6 6 5 4 4 3 3 3 4 3 3 3 3 3
10 10 10 11 10 8 6 6 5 4 2 3 4 5 6 6 6 7 7 7 7 7 7 7 7 7 7 6 6 6 6 6 5 5 4 4 3 3 3 3 3 3 3 3 3
9 9 9 10 9 7 6 5 5 3 2 2 4 5 6 6 6 7 6 6 6 6 6 6 6 6 6 6 6 6 5 5 5 4 4 4 4 3 4 3 3 3 3 3 3
9 9 9 9 9 7 6 5 4 3 2 3 4 5 5 6 6 6 6 6 6 6 5 5 5 5 5 5 5 5 5 4 3 2 3 4 4 4 4 3 3 3 3 3 3
9 8 8 8 8 7 6 5 4 3 3 4 4 4 4 5 5 5 6 5 5 5 5 5 4 4 5 5 5 5 5 4 2 2 3 4 4 4 4 3 3 3 3 3 3
8 8 7 7 7 6 6 4 4 4 4 4 5 4 4 4 4 4 5 5 5 5 5 5 4 4 4 4 4 5 5 5 4 3 3 4 5 4 4 3 2 2 3 3 3
8 7 6 5 5 5 5 5 5 5 5 5 4 4 4 4 4 4 4 4 5 5 5 5 5 5 4 4 4 4 4 4 4 3 2 3 4 4 4 3 2 2 2 3 3
7 7 6 5 4 4 4 5 5 5 5 4 4 4 4 4 4 4 4 4 4 4 4 5 5 5 4 4 3 3 4 4 4 3 2 2 3 4 3 3 2 2 2 2 2
8 7 7 6 4 4 5 5 5 5 4 4 4 4 5 5 5 4 4 4 3 3 4 4 4 4 4 4 4 4 4 4 3 3 3 3 3 4 3 2 2 2 2 2 3
9 9 8 7 6 5 5 5 5 5 4 4 4 5 5 5 5 5 4 4 3 3 3 3 3 3 4 4 4 4 4 3 3 3 4 4 4 4 3 2 2 2 3 3 3
11 10 8 8 7 7 6 6 5 5 5 5 4 4 4 4 4 4 4 4 3 2 2 2 2 3 3 4 4 4 4 3 3 3 3 4 4 4 3 3 3 3 3 3 3
12 11 10 10 9 9 8 7 6 6 6 5 4 4 4 4 4 4 3 3 3 2 1 1 2 2 3 4 4 5 5 4 4 3 3 3 4 4 4 4 4 3 3 3 3
13 13 13 12 11 10 9 8 7 7 7 5 4 4 3 3 3 3 3 3 3 2 1 1 1 2 4 4 5 5 5 5 4 4 3 3 3 3 3 3 3 3 3 2 2
15 15 15 14 12 11 9 8 7 7 7 5 4 3 3 3 3 4 4 3 3 2 2 1 2 3 4 4 4 5 5 5 4 4 3 3 4 4 3 3 3 2 2 2 2